Camarillo, CA

6:28 AM PDT on April 27, 2017 (GMT -0700)
Camarillo

Weather History for KCMA - July, 2013

Change the Weather History Date:

Saturday, July 13, 2013

  Actual Average Record
Temperature  
Mean Temperature 73 °F 67 °F  
Max Temperature 80 °F 76 °F 89 °F (1953)
Min Temperature 66 °F 58 °F 48 °F (1955)
Degree Days  
Heating Degree Days 0 0  
Month to date heating degree days 0 1  
Since 1 June heating degree days 0 44  
Since 1 July heating degree days 0 1  
Cooling Degree Days 8 2  
Month to date cooling degree days 117 26  
Year to date cooling degree days 369 80  
Since 1 June cooling degree days 263 49  
Growing Degree Days 22 (Base 50)    
Moisture  
Dew Point 59 °F    
Average Humidity 65    
Maximum Humidity 78    
Minimum Humidity 52    
Precipitation  
Precipitation 0.00 in 0.00 in 0.00 in (2017)
Month to date precipitation T 0.01  
Year to date precipitation 2.15 10.99  
Since 1 July precipitation T  
Sea Level Pressure  
Sea Level Pressure 29.94 in    
Wind  
Wind Speed 5 mph (WSW)    
Max Wind Speed 13 mph    
Max Gust Speed 18 mph    
Visibility 8 miles    
Events      
T = Trace of Precipitation, MM = Missing Value Source: NWS Daily Summary

Daily Weather History Graph

Daily Weather History Graph

Search for Another Location

Airport or City:

Trip Planner

Search our weather history database for the weather conditions in past years. The results will help you decide how hot, cold, wet, or windy it might be!

Date:

Astronomy

Jul. 13, 2013 Rise Set
Actual Time 5:54 AM PDT 8:09 PM PDT
Civil Twilight 5:25 AM PDT 8:38 PM PDT
Nautical Twilight 4:50 AM PDT 9:13 PM PDT
Astronomical Twilight 4:12 AM PDT 9:51 PM PDT
Moon 10:59 AM PDT (7/13) 11:10 PM PDT (7/13)
Length of Visible Light 15h 12m
Length of Day
14h 14m
Waxing Crescent, 26% of the Moon is Illuminated
Jul 13
Waxing Crescent
Jul 15
First Quarter
Jul 22
Full
Jul 29
Last Quarter
Aug 6
New

Hourly Weather History & Observations

Time (PDT) Temp. Dew Point Humidity Pressure Visibility Wind Dir Wind Speed Gust Speed Precip Events Conditions
12:55 AM 66.9 °F 59.0 °F 76% 29.94 in 6.0 mi South 4.6 mph - N/A   Haze
1:09 AM 66.2 °F 57.2 °F 73% 29.92 in 6.0 mi SW 3.5 mph - N/A   Haze
1:18 AM 66.2 °F 57.2 °F 73% 29.92 in 7.0 mi WSW 3.5 mph - N/A   Mostly Cloudy
1:55 AM 66.9 °F 59.0 °F 76% 29.95 in 6.0 mi South 8.1 mph - N/A   Haze
2:03 AM 66.2 °F 59.0 °F 78% 29.93 in 6.0 mi SSW 8.1 mph - N/A   Haze
2:55 AM 66.9 °F 59.0 °F 76% 29.95 in 6.0 mi West 5.8 mph - N/A   Haze
3:55 AM 66.9 °F 59.0 °F 76% 29.95 in 5.0 mi North 4.6 mph - N/A   Haze
4:55 AM 66.0 °F 59.0 °F 78% 29.95 in 5.0 mi Calm Calm - N/A   Haze
5:55 AM 66.9 °F 59.0 °F 76% 29.96 in 6.0 mi Calm Calm - N/A   Haze
6:55 AM 66.9 °F 57.9 °F 73% 29.98 in 5.0 mi Calm Calm - N/A   Haze
7:55 AM 68.0 °F 57.9 °F 70% 29.98 in 6.0 mi North 4.6 mph - N/A   Haze
8:55 AM 70.0 °F 59.0 °F 68% 29.98 in 6.0 mi Calm Calm - N/A   Haze
9:19 AM 69.8 °F 59.0 °F 68% 29.95 in 6.0 mi Variable 3.5 mph - N/A   Haze
9:55 AM 73.0 °F 59.0 °F 61% 29.98 in 7.0 mi Variable 3.5 mph - N/A   Clear
10:55 AM 75.9 °F 60.1 °F 58% 29.98 in 10.0 mi SSW 9.2 mph - N/A   Clear
11:55 AM 75.9 °F 59.0 °F 56% 29.99 in 10.0 mi West 6.9 mph - N/A   Clear
12:55 PM 79.0 °F 59.0 °F 50% 29.96 in 10.0 mi SW 8.1 mph - N/A   Clear
1:55 PM 78.1 °F 59.0 °F 52% 29.96 in 10.0 mi SW 8.1 mph 16.1 mph N/A   Clear
2:55 PM 79.0 °F 60.1 °F 52% 29.94 in 10.0 mi WSW 10.4 mph - N/A   Clear
3:55 PM 78.1 °F 60.1 °F 54% 29.92 in 10.0 mi West 10.4 mph - N/A   Clear
4:55 PM 75.0 °F 59.0 °F 57% 29.91 in 10.0 mi WSW 9.2 mph - N/A   Clear
5:55 PM 71.1 °F 59.0 °F 66% 29.90 in 10.0 mi West 8.1 mph - N/A   Scattered Clouds
6:07 PM 71.6 °F 59.0 °F 64% 29.87 in 10.0 mi West 6.9 mph - N/A   Mostly Cloudy
6:32 PM 69.8 °F 59.0 °F 68% 29.87 in 10.0 mi WSW 8.1 mph - N/A   Partly Cloudy
6:55 PM 71.1 °F 57.9 °F 63% 29.90 in 10.0 mi SW 5.8 mph - N/A   Clear
7:55 PM 70.0 °F 57.0 °F 63% 29.89 in 10.0 mi Calm Calm - N/A   Clear
8:55 PM 69.1 °F 57.0 °F 65% 29.89 in 10.0 mi West 4.6 mph - N/A   Clear
9:55 PM 68.0 °F 57.0 °F 68% 29.92 in 10.0 mi SSW 4.6 mph - N/A   Clear
10:55 PM 66.9 °F 57.0 °F 70% 29.93 in 8.0 mi Calm Calm - N/A   Clear
11:55 PM 66.0 °F 57.0 °F 73% 29.94 in 8.0 mi West 3.5 mph - N/A   Clear